Year,Month,Day,Hour,Minute,Value (Times are PST for temperature in C)
2015,05,26,00,00,14.10
2015,05,26,00,01,14.10
2015,05,26,00,02,14.10
2015,05,26,00,03,14.10
2015,05,26,00,04,14.10
2015,05,26,00,05,14.00
2015,05,26,00,06,14.00
2015,05,26,00,07,14.00
2015,05,26,00,08,14.00
2015,05,26,00,09,14.00
2015,05,26,00,10,14.00
2015,05,26,00,11,14.00
2015,05,26,00,12,14.00
2015,05,26,00,13,14.00
2015,05,26,00,14,14.00
2015,05,26,00,15,14.00
2015,05,26,00,16,14.00
2015,05,26,00,17,14.00
2015,05,26,00,18,14.00
2015,05,26,00,19,14.00
2015,05,26,00,20,14.00
2015,05,26,00,21,14.00
2015,05,26,00,22,14.00
2015,05,26,00,23,14.00
2015,05,26,00,24,14.10
2015,05,26,00,25,14.10
2015,05,26,00,26,14.10
2015,05,26,00,27,14.10
2015,05,26,00,28,14.10
2015,05,26,00,29,14.10
2015,05,26,00,30,14.00
2015,05,26,00,31,14.00
2015,05,26,00,32,14.00
2015,05,26,00,33,14.00
2015,05,26,00,34,14.00
2015,05,26,00,35,14.00
2015,05,26,00,36,14.00
2015,05,26,00,37,14.00
2015,05,26,00,38,13.90
2015,05,26,00,39,13.90
2015,05,26,00,40,13.90
2015,05,26,00,41,13.90
2015,05,26,00,42,13.90
2015,05,26,00,43,13.90
2015,05,26,00,44,13.90
2015,05,26,00,45,13.90
2015,05,26,00,46,13.90
2015,05,26,00,47,13.80
2015,05,26,00,48,13.80
2015,05,26,00,49,13.80
2015,05,26,00,50,13.80
2015,05,26,00,51,13.80
2015,05,26,00,52,13.80
2015,05,26,00,53,13.80
2015,05,26,00,54,13.80
2015,05,26,00,55,13.80
2015,05,26,00,56,13.80
2015,05,26,00,57,13.80
2015,05,26,00,58,13.80
2015,05,26,00,59,13.80
2015,05,26,01,00,13.80
2015,05,26,01,01,13.70
2015,05,26,01,02,13.70
2015,05,26,01,03,13.70
2015,05,26,01,04,13.70
2015,05,26,01,05,13.70
2015,05,26,01,06,13.70
2015,05,26,01,07,13.70
2015,05,26,01,08,13.70
2015,05,26,01,09,13.70
2015,05,26,01,10,13.70
2015,05,26,01,11,13.70
2015,05,26,01,12,13.70
2015,05,26,01,13,13.70
2015,05,26,01,14,13.70
2015,05,26,01,15,13.70
2015,05,26,01,16,13.70
2015,05,26,01,17,13.70
2015,05,26,01,18,13.70
2015,05,26,01,19,13.70
2015,05,26,01,20,13.70
2015,05,26,01,21,13.70
2015,05,26,01,22,13.70
2015,05,26,01,23,13.70
2015,05,26,01,24,13.70
2015,05,26,01,25,13.70
2015,05,26,01,26,13.70
2015,05,26,01,27,13.70
2015,05,26,01,28,13.70
2015,05,26,01,29,13.60
2015,05,26,01,30,13.60
2015,05,26,01,31,13.60
2015,05,26,01,32,13.60
2015,05,26,01,33,13.60
2015,05,26,01,34,13.60
2015,05,26,01,35,13.60
2015,05,26,01,36,13.60
2015,05,26,01,37,13.60
2015,05,26,01,38,13.60
2015,05,26,01,39,13.60
2015,05,26,01,40,13.60
2015,05,26,01,41,13.60
2015,05,26,01,42,13.60
2015,05,26,01,43,13.60
2015,05,26,01,44,13.50
2015,05,26,01,45,13.50
2015,05,26,01,46,13.50
2015,05,26,01,47,13.50
2015,05,26,01,48,13.50
2015,05,26,01,49,13.50
2015,05,26,01,50,13.50
2015,05,26,01,51,13.50
2015,05,26,01,52,13.50
2015,05,26,01,53,13.50
2015,05,26,01,54,13.50
2015,05,26,01,55,13.50
2015,05,26,01,56,13.40
2015,05,26,01,57,13.40
2015,05,26,01,58,13.40
2015,05,26,01,59,13.40
2015,05,26,02,00,13.40
2015,05,26,02,01,13.30
2015,05,26,02,02,13.30
2015,05,26,02,03,13.30
2015,05,26,02,04,13.30
2015,05,26,02,05,13.30
2015,05,26,02,06,13.30
2015,05,26,02,07,13.20
2015,05,26,02,08,13.20
2015,05,26,02,09,13.20
2015,05,26,02,10,13.20
2015,05,26,02,11,13.20
2015,05,26,02,12,13.10
2015,05,26,02,13,13.10
2015,05,26,02,14,13.10
2015,05,26,02,15,13.10
2015,05,26,02,16,13.10
2015,05,26,02,17,13.00
2015,05,26,02,18,13.00
2015,05,26,02,19,13.00
2015,05,26,02,20,12.90
2015,05,26,02,21,12.90
2015,05,26,02,22,12.90
2015,05,26,02,23,12.90
2015,05,26,02,24,12.90
2015,05,26,02,25,12.90
2015,05,26,02,26,12.90
2015,05,26,02,27,12.90
2015,05,26,02,28,12.90
2015,05,26,02,29,12.90
2015,05,26,02,30,12.90
2015,05,26,02,31,12.90
2015,05,26,02,32,12.90
2015,05,26,02,33,12.90
2015,05,26,02,34,12.90
2015,05,26,02,35,12.90
2015,05,26,02,36,12.90
2015,05,26,02,37,12.90
2015,05,26,02,38,12.90
2015,05,26,02,39,12.90
2015,05,26,02,40,12.80
2015,05,26,02,41,12.80
2015,05,26,02,42,12.80
2015,05,26,02,43,12.80
2015,05,26,02,44,12.80
2015,05,26,02,45,12.80
2015,05,26,02,46,12.80
2015,05,26,02,47,12.80
2015,05,26,02,48,12.80
2015,05,26,02,49,12.80
2015,05,26,02,50,12.80
2015,05,26,02,51,12.80
2015,05,26,02,52,12.80
2015,05,26,02,53,12.80
2015,05,26,02,54,12.80
2015,05,26,02,55,12.80
2015,05,26,02,56,12.70
2015,05,26,02,57,12.70
2015,05,26,02,58,12.70
2015,05,26,02,59,12.70
2015,05,26,03,00,12.70
2015,05,26,03,01,12.70
2015,05,26,03,02,12.70
2015,05,26,03,03,12.70
2015,05,26,03,04,12.70
2015,05,26,03,05,12.70
2015,05,26,03,06,12.70
2015,05,26,03,07,12.70
2015,05,26,03,08,12.70
2015,05,26,03,09,12.70
2015,05,26,03,10,12.60
2015,05,26,03,11,12.60
2015,05,26,03,12,12.60
2015,05,26,03,13,12.60
2015,05,26,03,14,12.60
2015,05,26,03,15,12.60
2015,05,26,03,16,12.60
2015,05,26,03,17,12.60
2015,05,26,03,18,12.60
2015,05,26,03,19,12.60
2015,05,26,03,20,12.60
2015,05,26,03,21,12.60
2015,05,26,03,22,12.60
2015,05,26,03,23,12.60
2015,05,26,03,24,12.60
2015,05,26,03,25,12.60
2015,05,26,03,26,12.60
2015,05,26,03,27,12.60
2015,05,26,03,28,12.60
2015,05,26,03,29,12.60
2015,05,26,03,30,12.60
2015,05,26,03,31,12.50
2015,05,26,03,32,12.60
2015,05,26,03,33,12.60
2015,05,26,03,34,12.50
2015,05,26,03,35,12.50
2015,05,26,03,36,12.50
2015,05,26,03,37,12.50
2015,05,26,03,38,12.50
2015,05,26,03,39,12.50
2015,05,26,03,40,12.50
2015,05,26,03,41,12.50
2015,05,26,03,42,12.50
2015,05,26,03,43,12.50
2015,05,26,03,44,12.50
2015,05,26,03,45,12.50
2015,05,26,03,46,12.50
2015,05,26,03,47,12.50
2015,05,26,03,48,12.40
2015,05,26,03,49,12.40
2015,05,26,03,50,12.40
2015,05,26,03,51,12.40
2015,05,26,03,52,12.40
2015,05,26,03,53,12.40
2015,05,26,03,54,12.40
2015,05,26,03,55,12.40
2015,05,26,03,56,12.40
2015,05,26,03,57,12.40
2015,05,26,03,58,12.40
2015,05,26,03,59,12.40
2015,05,26,04,00,12.40
2015,05,26,04,01,12.40
2015,05,26,04,02,12.40
2015,05,26,04,03,12.40
2015,05,26,04,04,12.40
2015,05,26,04,05,12.40
2015,05,26,04,06,12.40
2015,05,26,04,07,12.40
2015,05,26,04,08,12.40
2015,05,26,04,09,12.40
2015,05,26,04,10,12.40
2015,05,26,04,11,12.40
2015,05,26,04,12,12.40
2015,05,26,04,13,12.40
2015,05,26,04,14,12.40
2015,05,26,04,15,12.40
2015,05,26,04,16,12.40
2015,05,26,04,17,12.40
2015,05,26,04,18,12.40
2015,05,26,04,19,12.40
2015,05,26,04,20,12.40
2015,05,26,04,21,12.40
2015,05,26,04,22,12.40
2015,05,26,04,23,12.40
2015,05,26,04,24,12.40
2015,05,26,04,25,12.40
2015,05,26,04,26,12.40
2015,05,26,04,27,12.40
2015,05,26,04,28,12.40
2015,05,26,04,29,12.40
2015,05,26,04,30,12.40
2015,05,26,04,31,12.40
2015,05,26,04,32,12.40
2015,05,26,04,33,12.40
2015,05,26,04,34,12.40
2015,05,26,04,35,12.40
2015,05,26,04,36,12.40
2015,05,26,04,37,12.40
2015,05,26,04,38,12.40
2015,05,26,04,39,12.40
2015,05,26,04,40,12.40
2015,05,26,04,41,12.40
2015,05,26,04,42,12.40
2015,05,26,04,43,12.40
2015,05,26,04,44,12.40
2015,05,26,04,45,12.40
2015,05,26,04,46,12.40
2015,05,26,04,47,12.40
2015,05,26,04,48,12.30
2015,05,26,04,49,12.30
2015,05,26,04,50,12.30
2015,05,26,04,51,12.30
2015,05,26,04,52,12.30
2015,05,26,04,53,12.30
2015,05,26,04,54,12.30
2015,05,26,04,55,12.30
2015,05,26,04,56,12.30
2015,05,26,04,57,12.30
2015,05,26,04,58,12.30
2015,05,26,04,59,12.30
2015,05,26,05,00,12.30
2015,05,26,05,01,12.30
2015,05,26,05,02,12.30
2015,05,26,05,03,12.30
2015,05,26,05,04,12.30
2015,05,26,05,05,12.30
2015,05,26,05,06,12.30
2015,05,26,05,07,12.30
2015,05,26,05,08,12.30
2015,05,26,05,09,12.30
2015,05,26,05,10,12.30
2015,05,26,05,11,12.20
2015,05,26,05,12,12.20
2015,05,26,05,13,12.20
2015,05,26,05,14,12.20
2015,05,26,05,15,12.20
2015,05,26,05,16,12.20
2015,05,26,05,17,12.20
2015,05,26,05,18,12.20
2015,05,26,05,19,12.20
2015,05,26,05,20,12.20
2015,05,26,05,21,12.20
2015,05,26,05,22,12.20
2015,05,26,05,23,12.20
2015,05,26,05,24,12.20
2015,05,26,05,25,12.10
2015,05,26,05,26,12.10
2015,05,26,05,27,12.10
2015,05,26,05,28,12.10
2015,05,26,05,29,12.10
2015,05,26,05,30,12.10
2015,05,26,05,31,12.10
2015,05,26,05,32,12.10
2015,05,26,05,33,12.10
2015,05,26,05,34,12.10
2015,05,26,05,35,12.10
2015,05,26,05,36,12.10
2015,05,26,05,37,12.00
2015,05,26,05,38,12.00
2015,05,26,05,39,12.00
2015,05,26,05,40,12.00
2015,05,26,05,41,12.00
2015,05,26,05,42,12.00
2015,05,26,05,43,12.00
2015,05,26,05,44,12.00
2015,05,26,05,45,12.00
2015,05,26,05,46,12.00
2015,05,26,05,47,12.00
2015,05,26,05,48,12.00
2015,05,26,05,49,12.00
2015,05,26,05,50,12.00
2015,05,26,05,51,12.00
2015,05,26,05,52,12.00
2015,05,26,05,53,12.00
2015,05,26,05,54,12.00
2015,05,26,05,55,12.00
2015,05,26,05,56,12.00
2015,05,26,05,57,12.00
2015,05,26,05,58,12.00
2015,05,26,05,59,11.90
2015,05,26,06,00,11.90
2015,05,26,06,01,11.90
2015,05,26,06,02,11.90
2015,05,26,06,03,11.90
2015,05,26,06,04,11.90
2015,05,26,06,05,11.90
2015,05,26,06,06,11.90
2015,05,26,06,07,11.90
2015,05,26,06,08,11.90
2015,05,26,06,09,11.90
2015,05,26,06,10,11.90
2015,05,26,06,11,11.90
2015,05,26,06,12,11.90
2015,05,26,06,13,11.90
2015,05,26,06,14,11.90
2015,05,26,06,15,11.90
2015,05,26,06,16,11.90
2015,05,26,06,17,11.90
2015,05,26,06,18,11.90
2015,05,26,06,19,11.90
2015,05,26,06,20,11.90
2015,05,26,06,21,11.90
2015,05,26,06,22,11.90
2015,05,26,06,23,11.90
2015,05,26,06,24,11.90
2015,05,26,06,25,11.90
2015,05,26,06,26,11.90
2015,05,26,06,27,11.90
2015,05,26,06,28,11.90
2015,05,26,06,29,11.90
2015,05,26,06,30,12.00
2015,05,26,06,31,12.00
2015,05,26,06,32,12.00
2015,05,26,06,33,12.10
2015,05,26,06,34,12.10
2015,05,26,06,35,12.20
2015,05,26,06,36,12.20
2015,05,26,06,37,12.30
2015,05,26,06,38,12.30
2015,05,26,06,39,12.40
2015,05,26,06,40,12.40
2015,05,26,06,41,12.40
2015,05,26,06,42,12.50
2015,05,26,06,43,12.50
2015,05,26,06,44,12.50
2015,05,26,06,45,12.50
2015,05,26,06,46,12.50
2015,05,26,06,47,12.60
2015,05,26,06,48,12.60
2015,05,26,06,49,12.60
2015,05,26,06,50,12.60
2015,05,26,06,51,12.60
2015,05,26,06,52,12.60
2015,05,26,06,53,12.60
2015,05,26,06,54,12.60
2015,05,26,06,55,12.60
2015,05,26,06,56,12.60
2015,05,26,06,57,12.60
2015,05,26,06,58,12.60
2015,05,26,06,59,12.60
2015,05,26,07,00,12.60
2015,05,26,07,01,12.60
2015,05,26,07,02,12.60
2015,05,26,07,03,12.70
2015,05,26,07,04,12.70
2015,05,26,07,05,12.80
2015,05,26,07,06,12.80
2015,05,26,07,07,12.90
2015,05,26,07,08,13.00
2015,05,26,07,09,13.00
2015,05,26,07,10,13.10
2015,05,26,07,11,13.20
2015,05,26,07,12,13.20
2015,05,26,07,13,13.20
2015,05,26,07,14,13.30
2015,05,26,07,15,13.30
2015,05,26,07,16,13.40
2015,05,26,07,17,13.50
2015,05,26,07,18,13.50
2015,05,26,07,19,13.60
2015,05,26,07,20,13.60
2015,05,26,07,21,13.60
2015,05,26,07,22,13.70
2015,05,26,07,23,13.70
2015,05,26,07,24,13.80
2015,05,26,07,25,13.80
2015,05,26,07,26,13.80
2015,05,26,07,27,13.90
2015,05,26,07,28,13.90
2015,05,26,07,29,13.90
2015,05,26,07,30,13.90
2015,05,26,07,31,13.90
2015,05,26,07,32,14.00
2015,05,26,07,33,14.00
2015,05,26,07,34,14.00
2015,05,26,07,35,14.00
2015,05,26,07,36,14.10
2015,05,26,07,37,14.10
2015,05,26,07,38,14.20
2015,05,26,07,39,14.20
2015,05,26,07,40,14.30
2015,05,26,07,41,14.30
2015,05,26,07,42,14.40
2015,05,26,07,43,14.40
2015,05,26,07,44,14.50
2015,05,26,07,45,14.60
2015,05,26,07,46,14.60
2015,05,26,07,47,14.60
2015,05,26,07,48,14.60
2015,05,26,07,49,14.60
2015,05,26,07,50,14.60
2015,05,26,07,51,14.70
2015,05,26,07,52,14.70
2015,05,26,07,53,14.70
2015,05,26,07,54,14.70
2015,05,26,07,55,14.70
2015,05,26,07,56,14.60
2015,05,26,07,57,14.70
2015,05,26,07,58,14.70
2015,05,26,07,59,14.70
2015,05,26,08,00,14.70
2015,05,26,08,01,14.70
2015,05,26,08,02,14.70
2015,05,26,08,03,14.70
2015,05,26,08,04,14.70
2015,05,26,08,05,14.80
2015,05,26,08,06,14.80
2015,05,26,08,07,14.80
2015,05,26,08,08,14.80
2015,05,26,08,09,14.80
2015,05,26,08,10,14.90
2015,05,26,08,11,14.90
2015,05,26,08,12,15.00
2015,05,26,08,13,15.00
2015,05,26,08,14,15.10
2015,05,26,08,15,15.20
2015,05,26,08,16,15.20
2015,05,26,08,17,15.20
2015,05,26,08,18,15.20
2015,05,26,08,19,15.20
2015,05,26,08,20,15.20
2015,05,26,08,21,15.20
2015,05,26,08,22,15.20
2015,05,26,08,23,15.10
2015,05,26,08,24,15.10
2015,05,26,08,25,15.10
2015,05,26,08,26,15.10
2015,05,26,08,27,15.20
2015,05,26,08,28,15.20
2015,05,26,08,29,15.30
2015,05,26,08,30,15.40
2015,05,26,08,31,15.40
2015,05,26,08,32,15.50
2015,05,26,08,33,15.50
2015,05,26,08,34,15.60
2015,05,26,08,35,15.60
2015,05,26,08,36,15.70
2015,05,26,08,37,15.70
2015,05,26,08,38,15.80
2015,05,26,08,39,15.90
2015,05,26,08,40,16.00
2015,05,26,08,41,16.10
2015,05,26,08,42,16.10
2015,05,26,08,43,16.00
2015,05,26,08,44,15.90
2015,05,26,08,45,15.90
2015,05,26,08,46,15.80
2015,05,26,08,47,15.80
2015,05,26,08,48,15.80
2015,05,26,08,49,15.80
2015,05,26,08,50,15.80
2015,05,26,08,51,15.70
2015,05,26,08,52,15.70
2015,05,26,08,53,15.70
2015,05,26,08,54,15.70
2015,05,26,08,55,15.70
2015,05,26,08,56,15.70
2015,05,26,08,57,15.70
2015,05,26,08,58,15.70
2015,05,26,08,59,15.70
2015,05,26,09,00,15.70
2015,05,26,09,01,15.80
2015,05,26,09,02,15.90
2015,05,26,09,03,16.00
2015,05,26,09,04,16.10
2015,05,26,09,05,16.20
2015,05,26,09,06,16.20
2015,05,26,09,07,16.30
2015,05,26,09,08,16.30
2015,05,26,09,09,16.40
2015,05,26,09,10,16.40
2015,05,26,09,11,16.40
2015,05,26,09,12,16.30
2015,05,26,09,13,16.30
2015,05,26,09,14,16.20
2015,05,26,09,15,16.20
2015,05,26,09,16,16.20
2015,05,26,09,17,16.20
2015,05,26,09,18,16.20
2015,05,26,09,19,16.20
2015,05,26,09,20,16.30
2015,05,26,09,21,16.40
2015,05,26,09,22,16.50
2015,05,26,09,23,16.50
2015,05,26,09,24,16.50
2015,05,26,09,25,16.50
2015,05,26,09,26,16.50
2015,05,26,09,27,16.50
2015,05,26,09,28,16.50
2015,05,26,09,29,16.40
2015,05,26,09,30,16.30
2015,05,26,09,31,16.20
2015,05,26,09,32,16.10
2015,05,26,09,33,16.00
2015,05,26,09,34,16.00
2015,05,26,09,35,16.00
2015,05,26,09,36,16.00
2015,05,26,09,37,16.00
2015,05,26,09,38,15.90
2015,05,26,09,39,15.90
2015,05,26,09,40,16.00
2015,05,26,09,41,16.10
2015,05,26,09,42,16.10
2015,05,26,09,43,16.10
2015,05,26,09,44,16.10
2015,05,26,09,45,16.00
2015,05,26,09,46,16.00
2015,05,26,09,47,16.10
2015,05,26,09,48,16.10
2015,05,26,09,49,16.10
2015,05,26,09,50,16.10
2015,05,26,09,51,16.00
2015,05,26,09,52,16.10
2015,05,26,09,53,16.10
2015,05,26,09,54,16.10
2015,05,26,09,55,16.20
2015,05,26,09,56,16.20
2015,05,26,09,57,16.20
2015,05,26,09,58,16.30
2015,05,26,09,59,16.30
2015,05,26,10,00,16.40
2015,05,26,10,01,16.40
2015,05,26,10,02,16.30
2015,05,26,10,03,16.30
2015,05,26,10,04,16.30
2015,05,26,10,05,16.30
2015,05,26,10,06,16.30
2015,05,26,10,07,16.40
2015,05,26,10,08,16.50
2015,05,26,10,09,16.40
2015,05,26,10,10,16.40
2015,05,26,10,11,16.40
2015,05,26,10,12,16.40
2015,05,26,10,13,16.40
2015,05,26,10,14,16.40
2015,05,26,10,15,16.40
2015,05,26,10,16,16.40
2015,05,26,10,17,16.30
2015,05,26,10,18,16.30
2015,05,26,10,19,16.30
2015,05,26,10,20,16.30
2015,05,26,10,21,16.40
2015,05,26,10,22,16.30
2015,05,26,10,23,16.30
2015,05,26,10,24,16.40
2015,05,26,10,25,16.40
2015,05,26,10,26,16.30
2015,05,26,10,27,16.40
2015,05,26,10,28,16.40
2015,05,26,10,29,16.50
2015,05,26,10,30,16.50
2015,05,26,10,31,16.60
2015,05,26,10,32,16.50
2015,05,26,10,33,16.60
2015,05,26,10,34,16.60
2015,05,26,10,35,16.60
2015,05,26,10,36,16.70
2015,05,26,10,37,16.80
2015,05,26,10,38,16.80
2015,05,26,10,39,16.90
2015,05,26,10,40,16.90
2015,05,26,10,41,16.90
2015,05,26,10,42,16.90
2015,05,26,10,43,16.90
2015,05,26,10,44,17.00
2015,05,26,10,45,17.00
2015,05,26,10,46,17.10
2015,05,26,10,47,17.20
2015,05,26,10,48,17.30
2015,05,26,10,49,17.30
2015,05,26,10,50,17.30
2015,05,26,10,51,17.30
2015,05,26,10,52,17.30
2015,05,26,10,53,17.40
2015,05,26,10,54,17.40
2015,05,26,10,55,17.40
2015,05,26,10,56,17.40
2015,05,26,10,57,17.40
2015,05,26,10,58,17.40
2015,05,26,10,59,17.30
2015,05,26,11,00,17.30
2015,05,26,11,01,17.30
2015,05,26,11,02,17.30
2015,05,26,11,03,17.30
2015,05,26,11,04,17.30
2015,05,26,11,05,17.30
2015,05,26,11,06,17.30
2015,05,26,11,07,17.30
2015,05,26,11,08,17.30
2015,05,26,11,09,17.30
2015,05,26,11,10,17.30
2015,05,26,11,11,17.30
2015,05,26,11,12,17.40
2015,05,26,11,13,17.50
2015,05,26,11,14,17.50
2015,05,26,11,15,17.60
2015,05,26,11,16,17.60
2015,05,26,11,17,17.50
2015,05,26,11,18,17.50
2015,05,26,11,19,17.50
2015,05,26,11,20,17.50
2015,05,26,11,21,17.60
2015,05,26,11,22,17.60
2015,05,26,11,23,17.70
2015,05,26,11,24,17.70
2015,05,26,11,25,17.70
2015,05,26,11,26,17.70
2015,05,26,11,27,17.70
2015,05,26,11,28,17.60
2015,05,26,11,29,17.60
2015,05,26,11,30,17.50
2015,05,26,11,31,17.50
2015,05,26,11,32,17.50
2015,05,26,11,33,17.40
2015,05,26,11,34,17.50
2015,05,26,11,35,17.50
2015,05,26,11,36,17.60
2015,05,26,11,37,17.60
2015,05,26,11,38,17.60
2015,05,26,11,39,17.70
2015,05,26,11,40,17.60
2015,05,26,11,41,17.60
2015,05,26,11,42,17.60
2015,05,26,11,43,17.60
2015,05,26,11,44,17.50
2015,05,26,11,45,17.50
2015,05,26,11,46,17.60
2015,05,26,11,47,17.60
2015,05,26,11,48,17.50
2015,05,26,11,49,17.40
2015,05,26,11,50,17.40
2015,05,26,11,51,17.40
2015,05,26,11,52,17.50
2015,05,26,11,53,17.50
2015,05,26,11,54,17.50
2015,05,26,11,55,17.40
2015,05,26,11,56,17.50
2015,05,26,11,57,17.50
2015,05,26,11,58,17.60
2015,05,26,11,59,17.70
2015,05,26,12,00,17.70
2015,05,26,12,01,17.70
2015,05,26,12,02,17.70
2015,05,26,12,03,17.70
2015,05,26,12,04,17.80
2015,05,26,12,05,17.80
2015,05,26,12,06,17.90
2015,05,26,12,07,17.80
2015,05,26,12,08,17.80
2015,05,26,12,09,17.80
2015,05,26,12,10,17.80
2015,05,26,12,11,17.80
2015,05,26,12,12,17.80
2015,05,26,12,13,17.90
2015,05,26,12,14,18.00
2015,05,26,12,15,18.00
2015,05,26,12,16,18.00
2015,05,26,12,17,18.00
2015,05,26,12,18,18.00
2015,05,26,12,19,18.10
2015,05,26,12,20,18.10
2015,05,26,12,21,18.10
2015,05,26,12,22,18.10
2015,05,26,12,23,18.00
2015,05,26,12,24,18.00
2015,05,26,12,25,18.00
2015,05,26,12,26,18.00
2015,05,26,12,27,18.00
2015,05,26,12,28,18.00
2015,05,26,12,29,18.10
2015,05,26,12,30,18.10
2015,05,26,12,31,18.10
2015,05,26,12,32,18.10
2015,05,26,12,33,18.10
2015,05,26,12,34,18.10
2015,05,26,12,35,18.20
2015,05,26,12,36,18.30
2015,05,26,12,37,18.40
2015,05,26,12,38,18.40
2015,05,26,12,39,18.40
2015,05,26,12,40,18.30
2015,05,26,12,41,18.30
2015,05,26,12,42,18.30
2015,05,26,12,43,18.20
2015,05,26,12,44,18.20
2015,05,26,12,45,18.20
2015,05,26,12,46,18.30
2015,05,26,12,47,18.40
2015,05,26,12,48,18.50
2015,05,26,12,49,18.50
2015,05,26,12,50,18.60
2015,05,26,12,51,18.70
2015,05,26,12,52,18.70
2015,05,26,12,53,18.60
2015,05,26,12,54,18.60
2015,05,26,12,55,18.60
2015,05,26,12,56,18.60
2015,05,26,12,57,18.60
2015,05,26,12,58,18.70
2015,05,26,12,59,18.70
2015,05,26,13,00,18.80
2015,05,26,13,01,18.80
2015,05,26,13,02,18.90
2015,05,26,13,03,18.90
2015,05,26,13,04,19.00
2015,05,26,13,05,19.00
2015,05,26,13,06,19.00
2015,05,26,13,07,19.00
2015,05,26,13,08,19.10
2015,05,26,13,09,19.10
2015,05,26,13,10,19.10
2015,05,26,13,11,19.10
2015,05,26,13,12,19.00
2015,05,26,13,13,18.90
2015,05,26,13,14,19.00
2015,05,26,13,15,19.00
2015,05,26,13,16,19.10
2015,05,26,13,17,19.20
2015,05,26,13,18,19.20
2015,05,26,13,19,19.20
2015,05,26,13,20,19.10
2015,05,26,13,21,19.10
2015,05,26,13,22,19.10
2015,05,26,13,23,19.00
2015,05,26,13,24,19.00
2015,05,26,13,25,19.00
2015,05,26,13,26,19.00
2015,05,26,13,27,18.90
2015,05,26,13,28,18.90
2015,05,26,13,29,18.90
2015,05,26,13,30,18.90
2015,05,26,13,31,19.00
2015,05,26,13,32,19.00
2015,05,26,13,33,19.10
2015,05,26,13,34,19.20
2015,05,26,13,35,19.20
2015,05,26,13,36,19.20
2015,05,26,13,37,19.20
2015,05,26,13,38,19.20
2015,05,26,13,39,19.20
2015,05,26,13,40,19.20
2015,05,26,13,41,19.20
2015,05,26,13,42,19.20
2015,05,26,13,43,19.20
2015,05,26,13,44,19.30
2015,05,26,13,45,19.20
2015,05,26,13,46,19.30
2015,05,26,13,47,19.30
2015,05,26,13,48,19.30
2015,05,26,13,49,19.30
2015,05,26,13,50,19.30
2015,05,26,13,51,19.30
2015,05,26,13,52,19.30
2015,05,26,13,53,19.30
2015,05,26,13,54,19.30
2015,05,26,13,55,19.30
2015,05,26,13,56,19.40
2015,05,26,13,57,19.50
2015,05,26,13,58,19.50
2015,05,26,13,59,19.60
2015,05,26,14,00,19.60
2015,05,26,14,01,19.70
2015,05,26,14,02,19.70
2015,05,26,14,03,19.70
2015,05,26,14,04,19.60
2015,05,26,14,05,19.60
2015,05,26,14,06,19.60
2015,05,26,14,07,19.60
2015,05,26,14,08,19.50
2015,05,26,14,09,19.50
2015,05,26,14,10,19.50
2015,05,26,14,11,19.60
2015,05,26,14,12,19.60
2015,05,26,14,13,19.70
2015,05,26,14,14,19.70
2015,05,26,14,15,19.70
2015,05,26,14,16,19.70
2015,05,26,14,17,19.80
2015,05,26,14,18,19.90
2015,05,26,14,19,19.90
2015,05,26,14,20,19.90
2015,05,26,14,21,20.00
2015,05,26,14,22,19.90
2015,05,26,14,23,19.90
2015,05,26,14,24,19.80
2015,05,26,14,25,19.80
2015,05,26,14,26,19.80
2015,05,26,14,27,19.80
2015,05,26,14,28,19.90
2015,05,26,14,29,19.90
2015,05,26,14,30,19.90
2015,05,26,14,31,19.80
2015,05,26,14,32,19.80
2015,05,26,14,33,19.70
2015,05,26,14,34,19.60
2015,05,26,14,35,19.60
2015,05,26,14,36,19.50
2015,05,26,14,37,19.50
2015,05,26,14,38,19.50
2015,05,26,14,39,19.50
2015,05,26,14,40,19.50
2015,05,26,14,41,19.50
2015,05,26,14,42,19.60
2015,05,26,14,43,19.60
2015,05,26,14,44,19.60
2015,05,26,14,45,19.60
2015,05,26,14,46,19.60
2015,05,26,14,47,19.60
2015,05,26,14,48,19.60
2015,05,26,14,49,19.70
2015,05,26,14,50,19.80
2015,05,26,14,51,19.90
2015,05,26,14,52,19.90
2015,05,26,14,53,19.90
2015,05,26,14,54,20.00
2015,05,26,14,55,20.00
2015,05,26,14,56,20.10
2015,05,26,14,57,20.10
2015,05,26,14,58,20.10
2015,05,26,14,59,20.20
2015,05,26,15,00,20.20
2015,05,26,15,01,20.30
2015,05,26,15,02,20.40
2015,05,26,15,03,20.40
2015,05,26,15,04,20.40
2015,05,26,15,05,20.40
2015,05,26,15,06,20.40
2015,05,26,15,07,20.40
2015,05,26,15,08,20.50
2015,05,26,15,09,20.60
2015,05,26,15,10,20.70
2015,05,26,15,11,20.70
2015,05,26,15,12,20.70
2015,05,26,15,13,20.70
2015,05,26,15,14,20.60
2015,05,26,15,15,20.60
2015,05,26,15,16,20.50
2015,05,26,15,17,20.40
2015,05,26,15,18,20.30
2015,05,26,15,19,20.30
2015,05,26,15,20,20.30
2015,05,26,15,21,20.20
2015,05,26,15,22,20.20
2015,05,26,15,23,20.20
2015,05,26,15,24,20.20
2015,05,26,15,25,20.40
2015,05,26,15,26,20.50
2015,05,26,15,27,20.60
2015,05,26,15,28,20.70
2015,05,26,15,29,20.80
2015,05,26,15,30,20.80
2015,05,26,15,31,20.80
2015,05,26,15,32,20.80
2015,05,26,15,33,20.80
2015,05,26,15,34,20.80
2015,05,26,15,35,20.80
2015,05,26,15,36,20.80
2015,05,26,15,37,20.90
2015,05,26,15,38,21.00
2015,05,26,15,39,21.10
2015,05,26,15,40,21.20
2015,05,26,15,41,21.30
2015,05,26,15,42,21.40
2015,05,26,15,43,21.50
2015,05,26,15,44,21.60
2015,05,26,15,45,21.60
2015,05,26,15,46,21.70
2015,05,26,15,47,21.80
2015,05,26,15,48,22.00
2015,05,26,15,49,22.10
2015,05,26,15,50,22.20
2015,05,26,15,51,22.20
2015,05,26,15,52,22.20
2015,05,26,15,53,22.20
2015,05,26,15,54,22.20
2015,05,26,15,55,22.20
2015,05,26,15,56,22.20
2015,05,26,15,57,22.20
2015,05,26,15,58,22.20
2015,05,26,15,59,22.30
2015,05,26,16,00,22.30
2015,05,26,16,01,22.30
2015,05,26,16,02,22.30
2015,05,26,16,03,22.30
2015,05,26,16,04,22.30
2015,05,26,16,05,22.30
2015,05,26,16,06,22.30
2015,05,26,16,07,22.30
2015,05,26,16,08,22.20
2015,05,26,16,09,22.20
2015,05,26,16,10,22.10
2015,05,26,16,11,21.90
2015,05,26,16,12,21.80
2015,05,26,16,13,21.80
2015,05,26,16,14,21.70
2015,05,26,16,15,21.70
2015,05,26,16,16,21.70
2015,05,26,16,17,21.80
2015,05,26,16,18,21.80
2015,05,26,16,19,21.90
2015,05,26,16,20,21.90
2015,05,26,16,21,21.80
2015,05,26,16,22,21.70
2015,05,26,16,23,21.60
2015,05,26,16,24,21.60
2015,05,26,16,25,21.60
2015,05,26,16,26,21.50
2015,05,26,16,27,21.40
2015,05,26,16,28,21.40
2015,05,26,16,29,21.40
2015,05,26,16,30,21.50
2015,05,26,16,31,21.60
2015,05,26,16,32,21.70
2015,05,26,16,33,21.70
2015,05,26,16,34,21.70
2015,05,26,16,35,21.70
2015,05,26,16,36,21.70
2015,05,26,16,37,21.70
2015,05,26,16,38,21.70
2015,05,26,16,39,21.70
2015,05,26,16,40,21.80
2015,05,26,16,41,21.80
2015,05,26,16,42,21.90
2015,05,26,16,43,21.90
2015,05,26,16,44,21.80
2015,05,26,16,45,21.80
2015,05,26,16,46,21.80
2015,05,26,16,47,21.80
2015,05,26,16,48,21.80
2015,05,26,16,49,21.80
2015,05,26,16,50,21.80
2015,05,26,16,51,21.80
2015,05,26,16,52,21.80
2015,05,26,16,53,21.80
2015,05,26,16,54,21.80
2015,05,26,16,55,21.70
2015,05,26,16,56,21.70
2015,05,26,16,57,21.70
2015,05,26,16,58,21.70
2015,05,26,16,59,21.70
2015,05,26,17,00,21.70
2015,05,26,17,01,21.80
2015,05,26,17,02,21.80
2015,05,26,17,03,21.80
2015,05,26,17,04,21.90
2015,05,26,17,05,21.90
2015,05,26,17,06,21.90
2015,05,26,17,07,21.90
2015,05,26,17,08,21.90
2015,05,26,17,09,21.90
2015,05,26,17,10,22.00
2015,05,26,17,11,22.00
2015,05,26,17,12,22.10
2015,05,26,17,13,22.10
2015,05,26,17,14,22.20
2015,05,26,17,15,22.20
2015,05,26,17,16,22.20
2015,05,26,17,17,22.20
2015,05,26,17,18,22.10
2015,05,26,17,19,22.00